Weather History for KCUL - May, 2013

Change the Weather History Date:

Thursday, May 23, 2013

  Actual Average (KEVV) Record (KEVV)
Temperature  
Mean Temperature 61 °F 68 °F  
Max Temperature 69 °F 79 °F 95 °F (1975)
Min Temperature 53 °F 57 °F 34 °F (1963)
Degree Days  
Heating Degree Days 4 2  
Month to date heating degree days 76  
Since 1 July heating degree days 4531  
Cooling Degree Days 0 5  
Month to date cooling degree days 64  
Year to date cooling degree days 91  
Growing Degree Days 11 (Base 50)    
Moisture  
Dew Point 55 °F    
Average Humidity 76    
Maximum Humidity 94    
Minimum Humidity 56    
Precipitation  
Precipitation 0.01 in 0.17 in 2.07 in (1915)
Month to date precipitation 3.99  
Year to date precipitation 18.87  
Snow  
Snow 0.00 in 0.00 in 0.00 in (2002)
Month to date snowfall 0.0  
Since 1 July snowfall 11.8  
Snow Depth -    
Sea Level Pressure  
Sea Level Pressure 30.00 in    
Wind  
Wind Speed 9 mph (WNW)    
Max Wind Speed 20 mph    
Max Gust Speed 26 mph    
Visibility 10 miles    
Events      
T = Trace of Precipitation, MM = Missing Value Source: NWS Daily Summary

Daily Weather History Graph

Daily Weather History Graph

Search for Another Location

Airport or City:

Trip Planner

Search our weather history database for the weather conditions in past years. The results will help you decide how hot, cold, wet, or windy it might be!

Date:

Astronomy

May. 23, 2013 Rise Set
Actual Time 5:35 AM CDT 8:03 PM CDT
Civil Twilight 5:05 AM CDT 8:33 PM CDT
Nautical Twilight 4:28 AM CDT 9:11 PM CDT
Astronomical Twilight 3:46 AM CDT 9:52 PM CDT
Moon 6:36 PM CDT (5/23) 4:18 AM CDT (5/23)
Length of Visible Light 15h 28m
Length of Day
14h 27m
Waxing Gibbous, 97% of the Moon is Illuminated
May 23
Waxing Gibbous
May 24
Full
May 31
Last Quarter
Jun 8
New
Jun 16
First Quarter

Hourly Weather History & Observations

Time (CDT) Temp. Dew Point Humidity Pressure Visibility Wind Dir Wind Speed Gust Speed Precip Events Conditions
12:18 AM 68.0 °F 60.8 °F 78% 29.86 in 10.0 mi WNW 5.8 mph - N/A   Mostly Cloudy
12:38 AM 68.0 °F 60.8 °F 78% 29.86 in 10.0 mi WNW 5.8 mph - N/A   Overcast
12:58 AM 68.0 °F 60.8 °F 78% 29.87 in 10.0 mi WNW 8.1 mph - N/A   Overcast
1:18 AM 66.2 °F 59.0 °F 78% 29.87 in 10.0 mi NW 6.9 mph - N/A   Mostly Cloudy
1:42 AM 64.4 °F 57.2 °F 77% 29.87 in 10.0 mi NW 3.5 mph - N/A   Scattered Clouds
1:59 AM 64.4 °F 57.2 °F 77% 29.87 in 10.0 mi WNW 4.6 mph - N/A   Clear
2:18 AM 64.4 °F 57.2 °F 77% 29.88 in 10.0 mi Calm Calm - N/A   Clear
2:38 AM 62.6 °F 57.2 °F 82% 29.88 in 10.0 mi West 3.5 mph - N/A   Clear
2:59 AM 60.8 °F 57.2 °F 88% 29.88 in 10.0 mi WSW 3.5 mph - N/A   Clear
3:19 AM 62.6 °F 57.2 °F 82% 29.88 in 10.0 mi WSW 5.8 mph - N/A   Clear
3:39 AM 60.8 °F 57.2 °F 88% 29.89 in 10.0 mi SW 3.5 mph - N/A   Clear
4:01 AM 60.8 °F 57.2 °F 88% 29.90 in 10.0 mi SW 4.6 mph - N/A   Clear
4:18 AM 60.8 °F 57.2 °F 88% 29.89 in 10.0 mi SW 4.6 mph - N/A   Clear
4:38 AM 59.0 °F 55.4 °F 88% 29.90 in 10.0 mi SSW 4.6 mph - N/A   Clear
4:59 AM 60.8 °F 57.2 °F 88% 29.90 in 10.0 mi SSW 3.5 mph - N/A   Clear
5:18 AM 59.0 °F 55.4 °F 88% 29.91 in 10.0 mi SSW 4.6 mph - N/A   Clear
5:38 AM 59.0 °F 55.4 °F 88% 29.92 in 10.0 mi SSW 3.5 mph - N/A   Clear
6:01 AM 57.2 °F 55.4 °F 94% 29.92 in 10.0 mi SSW 3.5 mph - N/A   Clear
6:18 AM 60.8 °F 57.2 °F 88% 29.92 in 10.0 mi SSW 4.6 mph - N/A   Clear
6:38 AM 60.8 °F 57.2 °F 88% 29.93 in 10.0 mi SSW 3.5 mph - N/A   Clear
6:58 AM 62.6 °F 57.2 °F 82% 29.93 in 10.0 mi SSW 5.8 mph - N/A   Clear
7:19 AM 62.6 °F 57.2 °F 82% 29.94 in 10.0 mi SW 6.9 mph - N/A   Clear
7:38 AM 64.4 °F 57.2 °F 77% 29.94 in 10.0 mi WSW 8.1 mph - N/A   Clear
8:01 AM 66.2 °F 57.2 °F 73% 29.94 in 10.0 mi West 8.1 mph - N/A   Clear
8:18 AM 66.2 °F 57.2 °F 73% 29.94 in 10.0 mi WSW 5.8 mph - N/A   Clear
8:38 AM 68.0 °F 57.2 °F 68% 29.94 in 10.0 mi West 9.2 mph - N/A   Clear
8:58 AM 68.0 °F 55.4 °F 64% 29.94 in 10.0 mi West 11.5 mph 18.4 mph N/A   Clear
9:18 AM 69.8 °F 53.6 °F 56% 29.94 in 10.0 mi West 13.8 mph 17.3 mph N/A   Clear
9:38 AM 69.8 °F 55.4 °F 60% 29.95 in 10.0 mi West 13.8 mph - N/A   Mostly Cloudy
9:58 AM 66.2 °F 53.6 °F 64% 29.96 in 10.0 mi West 12.7 mph - N/A   Overcast
10:18 AM 66.2 °F 53.6 °F 64% 29.97 in 10.0 mi WNW 13.8 mph 21.9 mph N/A   Overcast
10:38 AM 66.2 °F 55.4 °F 68% 29.97 in 10.0 mi WNW 11.5 mph 17.3 mph N/A   Overcast
11:02 AM 66.2 °F 53.6 °F 64% 29.97 in 10.0 mi WNW 13.8 mph 21.9 mph N/A   Overcast
11:18 AM 66.2 °F 53.6 °F 64% 29.97 in 10.0 mi WNW 13.8 mph 20.7 mph N/A   Overcast
11:38 AM 66.2 °F 55.4 °F 68% 29.97 in 10.0 mi WNW 11.5 mph - N/A   Overcast
11:58 AM 69.8 °F 55.4 °F 60% 29.98 in 10.0 mi WNW 13.8 mph 19.6 mph N/A   Overcast
12:18 PM 69.8 °F 55.4 °F 60% 29.99 in 10.0 mi NW 13.8 mph - N/A   Overcast
12:38 PM 69.8 °F 55.4 °F 60% 30.00 in 10.0 mi WNW 12.7 mph - N/A   Overcast
12:58 PM 69.8 °F 57.2 °F 64% 30.01 in 10.0 mi West 13.8 mph - N/A   Overcast
1:18 PM 69.8 °F 55.4 °F 60% 30.01 in 10.0 mi West 15.0 mph - N/A   Overcast
1:38 PM 66.2 °F 55.4 °F 68% 30.01 in 10.0 mi West 15.0 mph 21.9 mph N/A   Overcast
1:58 PM 68.0 °F 55.4 °F 64% 30.02 in 10.0 mi West 19.6 mph 23.0 mph N/A   Overcast
2:18 PM 68.0 °F 55.4 °F 64% 30.02 in 10.0 mi West 15.0 mph 24.2 mph N/A   Overcast
2:38 PM 66.2 °F 55.4 °F 68% 30.03 in 10.0 mi West 16.1 mph 24.2 mph N/A   Overcast
2:58 PM 64.4 °F 57.2 °F 77% 30.04 in 7.0 mi WNW 18.4 mph 21.9 mph N/A   Overcast
3:18 PM 64.4 °F 57.2 °F 77% 30.04 in 10.0 mi WNW 16.1 mph 26.5 mph N/A   Overcast
3:38 PM 68.0 °F 60.8 °F 78% 30.04 in 10.0 mi WNW 15.0 mph 21.9 mph N/A   Mostly Cloudy
3:55 PM 68.0 °F 59.0 °F 73% 30.04 in 10.0 mi WNW 12.7 mph 18.4 mph N/A   Mostly Cloudy
4:15 PM 66.4 °F 57.7 °F 74% 30.04 in 10.0 mi WNW 15.0 mph 20.7 mph N/A   Overcast
4:35 PM 66.7 °F 58.1 °F 74% 30.05 in 10.0 mi WNW 13.8 mph - N/A   Overcast
4:55 PM 66.9 °F 57.9 °F 73% 30.05 in 10.0 mi WNW 18.4 mph 24.2 mph N/A   Overcast
5:15 PM 66.7 °F 58.6 °F 75% 30.05 in 10.0 mi West 11.5 mph 18.4 mph N/A   Overcast
5:35 PM 67.3 °F 58.3 °F 73% 30.05 in 10.0 mi WNW 15.0 mph - N/A   Overcast
5:55 PM 67.1 °F 59.0 °F 75% 30.05 in 10.0 mi WNW 15.0 mph - N/A   Overcast
6:15 PM 66.6 °F 58.8 °F 76% 30.07 in 10.0 mi North 17.3 mph - N/A   Overcast
6:35 PM 60.1 °F 57.6 °F 91% 30.08 in 3.0 mi NNW 11.5 mph 21.9 mph 0.01 in   Overcast
6:55 PM 59.9 °F 57.4 °F 91% 30.09 in 4.0 mi NNW 16.1 mph 23.0 mph 0.01 in   Overcast
7:15 PM 59.5 °F 55.8 °F 87% 30.10 in 10.0 mi NNW 16.1 mph 20.7 mph N/A   Overcast
7:58 PM 59.0 °F 53.6 °F 82% 30.12 in 10.0 mi NNW 12.7 mph 17.3 mph N/A   Overcast
8:18 PM 57.2 °F 51.8 °F 82% 30.12 in 10.0 mi NNW 15.0 mph 23.0 mph N/A   Overcast
8:38 PM 57.2 °F 51.8 °F 82% 30.13 in 10.0 mi NNW 13.8 mph 20.7 mph N/A   Overcast
8:59 PM 57.2 °F 51.8 °F 82% 30.14 in 10.0 mi NNW 11.5 mph 18.4 mph N/A   Overcast
9:18 PM 57.2 °F 48.2 °F 72% 30.15 in 10.0 mi North 15.0 mph 21.9 mph N/A   Overcast
9:38 PM 57.2 °F 48.2 °F 72% 30.16 in 10.0 mi North 11.5 mph 24.2 mph N/A   Overcast
9:58 PM 57.2 °F 48.2 °F 72% 30.17 in 10.0 mi North 11.5 mph 17.3 mph N/A   Overcast
10:18 PM 55.4 °F 48.2 °F 77% 30.18 in 10.0 mi North 16.1 mph 25.3 mph N/A   Overcast
10:40 PM 55.4 °F 46.4 °F 72% 30.18 in 10.0 mi North 16.1 mph - N/A   Mostly Cloudy
10:58 PM 55.4 °F 48.2 °F 77% 30.19 in 10.0 mi North 15.0 mph 18.4 mph N/A   Overcast
11:18 PM 55.4 °F 46.4 °F 72% 30.20 in 10.0 mi North 18.4 mph 25.3 mph N/A   Overcast
11:40 PM 53.6 °F 46.4 °F 77% 30.21 in 10.0 mi North 10.4 mph 23.0 mph N/A   Scattered Clouds
11:59 PM 53.6 °F 46.4 °F 77% 30.21 in 10.0 mi NNW 10.4 mph 21.9 mph N/A   Clear